Terminal Aerodrome Forecast
Issued by NWS Des Moines, IA

Home | Current Version | Previous Version | Text Only | Print | Product List | Glossary On
Versions: 1 2 3 4 5 6 7 8 9 10 11 12 13 14 15 16 17 18 19 20 21 22 23 24 25 26 27 28 29 30 31 32 33 34 35 36 37
000
FTUS43 KDMX 230520
TAFDSM
TAF
KDSM 230520Z 2306/2406 16005KT P6SM BKN250
     FM231600 17011KT P6SM SCT120 BKN250
     FM240100 14007KT P6SM -SHRA SCT030 OVC070=

USA.gov is the U.S. government's official web portal to all federal, state and local government web resources and services.